Time,TemperatureF,DewpointF,PressureIn,WindDirection,WindDirectionDegrees,WindSpeedMPH,WindSpeedGustMPH,Humidity,HourlyPrecipIn,Conditions,Clouds,dailyrainin,SoftwareType,DateUTC
2013-09-27 00:00:00,71.1,68.7,29.88,North,10,0.0,0.0,92,0.00,,,0.09,Wunderground v.1.15,2013-09-27 04:00:00,
2013-09-27 00:05:00,71.1,68.7,29.88,North,11,1.0,1.0,92,0.00,,,0.00,Wunderground v.1.15,2013-09-27 04:05:00,
2013-09-27 00:10:00,71.0,68.6,29.88,North,11,0.0,0.0,92,0.00,,,0.00,Wunderground v.1.15,2013-09-27 04:10:00,
2013-09-27 00:15:00,70.9,68.8,29.88,North,355,1.0,1.0,93,0.00,,,0.00,Wunderground v.1.15,2013-09-27 04:15:00,
2013-09-27 00:20:00,70.8,68.7,29.88,North,5,0.0,0.0,93,0.00,,,0.00,Wunderground v.1.15,2013-09-27 04:20:00,
2013-09-27 00:25:00,70.7,68.6,29.88,North,5,0.0,0.0,93,0.00,,,0.00,Wunderground v.1.15,2013-09-27 04:25:00,
2013-09-27 00:35:00,70.6,68.5,29.88,North,5,0.0,0.0,93,0.00,,,0.00,Wunderground v.1.15,2013-09-27 04:35:00,
2013-09-27 00:45:00,70.4,68.6,29.88,North,5,0.0,0.0,94,0.00,,,0.00,Wunderground v.1.15,2013-09-27 04:45:00,
2013-09-27 00:50:00,70.3,68.5,29.88,North,5,0.0,0.0,94,0.00,,,0.00,Wunderground v.1.15,2013-09-27 04:50:00,
2013-09-27 01:00:00,70.2,68.4,29.88,North,350,1.0,1.0,94,0.00,,,0.00,Wunderground v.1.15,2013-09-27 05:00:00,
2013-09-27 01:05:00,70.1,68.3,29.88,North,350,1.0,1.0,94,0.00,,,0.00,Wunderground v.1.15,2013-09-27 05:05:00,
2013-09-27 01:15:00,69.9,68.1,29.88,NW,325,0.0,1.0,94,0.00,,,0.00,Wunderground v.1.15,2013-09-27 05:15:00,
2013-09-27 01:20:00,69.9,68.1,29.88,North,11,0.0,1.0,94,0.00,,,0.00,Wunderground v.1.15,2013-09-27 05:20:00,
2013-09-27 01:30:00,69.8,68.3,29.88,North,11,0.0,0.0,95,0.00,,,0.00,Wunderground v.1.15,2013-09-27 05:30:00,
2013-09-27 01:35:00,69.7,68.2,29.88,NNW,340,0.0,2.0,95,0.00,,,0.00,Wunderground v.1.15,2013-09-27 05:35:00,
2013-09-27 01:45:00,69.7,68.2,29.88,NNE,29,1.0,1.0,95,0.00,,,0.00,Wunderground v.1.15,2013-09-27 05:45:00,
2013-09-27 01:55:00,69.7,68.2,29.88,North,5,0.0,1.0,95,0.00,,,0.00,Wunderground v.1.15,2013-09-27 05:55:00,
2013-09-27 02:00:00,69.7,68.2,29.88,North,5,1.0,1.0,95,0.00,,,0.00,Wunderground v.1.15,2013-09-27 06:00:00,
2013-09-27 02:05:00,69.7,68.2,29.88,North,355,0.0,1.0,95,0.00,,,0.00,Wunderground v.1.15,2013-09-27 06:05:00,
2013-09-27 02:15:00,69.7,68.2,29.88,NNW,342,0.0,1.0,95,0.00,,,0.00,Wunderground v.1.15,2013-09-27 06:15:00,
2013-09-27 02:20:00,69.7,68.2,29.88,NNW,342,0.0,0.0,95,0.00,,,0.00,Wunderground v.1.15,2013-09-27 06:20:00,
2013-09-27 02:30:00,69.6,68.1,29.88,NNW,340,0.0,1.0,95,0.00,,,0.00,Wunderground v.1.15,2013-09-27 06:30:00,
2013-09-27 02:40:00,69.4,67.9,29.88,NW,325,0.0,0.0,95,0.00,,,0.00,Wunderground v.1.15,2013-09-27 06:40:00,
2013-09-27 02:45:00,69.4,67.9,29.88,NW,325,1.0,1.0,95,0.00,,,0.00,Wunderground v.1.15,2013-09-27 06:45:00,
2013-09-27 02:55:00,69.3,67.8,29.88,ENE,57,0.0,0.0,95,0.00,,,0.00,Wunderground v.1.15,2013-09-27 06:55:00,
2013-09-27 03:00:00,69.3,67.8,29.88,ENE,57,0.0,0.0,95,0.00,,,0.00,Wunderground v.1.15,2013-09-27 07:00:00,
2013-09-27 03:10:00,69.2,68.0,29.88,North,5,0.0,0.0,96,0.00,,,0.00,Wunderground v.1.15,2013-09-27 07:10:00,
2013-09-27 03:15:00,69.1,67.9,29.88,North,5,0.0,0.0,96,0.00,,,0.00,Wunderground v.1.15,2013-09-27 07:15:00,
2013-09-27 03:25:00,69.0,67.8,29.87,North,5,0.0,0.0,96,0.00,,,0.00,Wunderground v.1.15,2013-09-27 07:25:00,
2013-09-27 03:30:00,68.8,67.6,29.88,North,5,0.0,0.0,96,0.00,,,0.00,Wunderground v.1.15,2013-09-27 07:30:00,
2013-09-27 03:40:00,68.7,67.5,29.87,North,5,0.0,0.0,96,0.00,,,0.00,Wunderground v.1.15,2013-09-27 07:40:00,
2013-09-27 03:45:00,68.6,67.4,29.87,North,5,0.0,0.0,96,0.00,,,0.00,Wunderground v.1.15,2013-09-27 07:45:00,
2013-09-27 03:55:00,68.5,67.3,29.87,NNE,23,0.0,0.0,96,0.00,,,0.00,Wunderground v.1.15,2013-09-27 07:55:00,
2013-09-27 04:00:00,68.6,67.4,29.87,NNE,22,0.0,0.0,96,0.00,,,0.00,Wunderground v.1.15,2013-09-27 08:00:00,
2013-09-27 04:05:00,68.6,67.4,29.87,NNE,22,0.0,1.0,96,0.00,,,0.00,Wunderground v.1.15,2013-09-27 08:05:00,
2013-09-27 04:10:00,68.7,67.5,29.87,NNE,22,0.0,0.0,96,0.00,,,0.00,Wunderground v.1.15,2013-09-27 08:10:00,
2013-09-27 04:15:00,68.7,67.5,29.87,NNE,22,0.0,1.0,96,0.00,,,0.00,Wunderground v.1.15,2013-09-27 08:15:00,
2013-09-27 04:20:00,68.8,67.6,29.87,North,5,0.0,0.0,96,0.00,,,0.00,Wunderground v.1.15,2013-09-27 08:20:00,
2013-09-27 04:30:00,68.8,67.6,29.87,NNE,18,0.0,0.0,96,0.00,,,0.00,Wunderground v.1.15,2013-09-27 08:30:00,
2013-09-27 04:35:00,68.8,67.6,29.87,NNE,18,0.0,0.0,96,0.00,,,0.00,Wunderground v.1.15,2013-09-27 08:35:00,
2013-09-27 04:45:00,68.8,67.6,29.87,NNE,18,0.0,0.0,96,0.00,,,0.00,Wunderground v.1.15,2013-09-27 08:45:00,
2013-09-27 04:50:00,68.7,67.5,29.87,NNE,22,0.0,0.0,96,0.00,,,0.00,Wunderground v.1.15,2013-09-27 08:50:00,
2013-09-27 05:00:00,68.8,67.6,29.87,NNE,22,0.0,0.0,96,0.00,,,0.00,Wunderground v.1.15,2013-09-27 09:00:00,
2013-09-27 05:10:00,68.8,67.6,29.88,NNE,22,0.0,0.0,96,0.00,,,0.00,Wunderground v.1.15,2013-09-27 09:10:00,
2013-09-27 05:15:00,68.9,67.7,29.88,NNE,22,0.0,0.0,96,0.00,,,0.00,Wunderground v.1.15,2013-09-27 09:15:00,
2013-09-27 05:20:00,68.9,67.7,29.88,NNE,22,0.0,0.0,96,0.00,,,0.00,Wunderground v.1.15,2013-09-27 09:20:00,
2013-09-27 05:25:00,68.9,67.7,29.88,NNE,22,0.0,0.0,96,0.00,,,0.00,Wunderground v.1.15,2013-09-27 09:25:00,
2013-09-27 05:30:00,69.0,67.8,29.88,NNE,22,0.0,0.0,96,0.00,,,0.00,Wunderground v.1.15,2013-09-27 09:30:00,
2013-09-27 05:40:00,69.0,67.8,29.88,NNW,329,0.0,0.0,96,0.00,,,0.00,Wunderground v.1.15,2013-09-27 09:40:00,
2013-09-27 05:50:00,69.1,67.9,29.88,NNW,345,1.0,1.0,96,0.00,,,0.00,Wunderground v.1.15,2013-09-27 09:50:00,
2013-09-27 06:00:00,69.1,67.9,29.88,NNW,345,0.0,2.0,96,0.00,,,0.00,Wunderground v.1.15,2013-09-27 10:00:00,
2013-09-27 06:05:00,69.1,67.9,29.89,North,5,1.0,2.0,96,0.00,,,0.00,Wunderground v.1.15,2013-09-27 10:05:00,
2013-09-27 06:10:00,69.1,67.9,29.89,NNW,348,1.0,2.0,96,0.00,,,0.00,Wunderground v.1.15,2013-09-27 10:10:00,
2013-09-27 06:20:00,69.0,67.8,29.89,NE,42,1.0,1.0,96,0.00,,,0.00,Wunderground v.1.15,2013-09-27 10:20:00,
2013-09-27 06:25:00,69.0,67.8,29.89,NNW,328,1.0,2.0,96,0.00,,,0.00,Wunderground v.1.15,2013-09-27 10:25:00,
2013-09-27 06:30:00,69.0,67.8,29.89,NNW,332,1.0,1.0,96,0.00,,,0.00,Wunderground v.1.15,2013-09-27 10:30:00,
2013-09-27 06:40:00,69.0,67.8,29.89,North,350,1.0,1.0,96,0.00,,,0.00,Wunderground v.1.15,2013-09-27 10:40:00,
2013-09-27 06:45:00,69.1,68.2,29.90,NE,44,1.0,1.0,97,0.00,,,0.00,Wunderground v.1.15,2013-09-27 10:45:00,
2013-09-27 06:50:00,69.1,67.9,29.90,NW,321,1.0,1.0,96,0.00,,,0.00,Wunderground v.1.15,2013-09-27 10:50:00,
2013-09-27 07:00:00,69.2,68.3,29.90,ENE,57,1.0,1.0,97,0.00,,,0.00,Wunderground v.1.15,2013-09-27 11:00:00,
2013-09-27 07:05:00,69.2,68.3,29.90,NNE,18,1.0,1.0,97,0.00,,,0.00,Wunderground v.1.15,2013-09-27 11:05:00,
2013-09-27 07:15:00,69.3,68.4,29.91,NNE,17,0.0,0.0,97,0.00,,,0.00,Wunderground v.1.15,2013-09-27 11:15:00,
2013-09-27 07:25:00,69.3,68.1,29.91,North,355,0.0,0.0,96,0.00,,,0.00,Wunderground v.1.15,2013-09-27 11:25:00,
2013-09-27 07:30:00,69.3,68.1,29.91,North,9,0.0,0.0,96,0.00,,,0.00,Wunderground v.1.15,2013-09-27 11:30:00,
2013-09-27 07:40:00,69.2,68.0,29.91,NNW,336,0.0,2.0,96,0.00,,,0.00,Wunderground v.1.15,2013-09-27 11:40:00,
2013-09-27 07:45:00,69.3,68.1,29.91,NNW,336,0.0,2.0,96,0.00,,,0.00,Wunderground v.1.15,2013-09-27 11:45:00,
2013-09-27 07:50:00,69.3,68.1,29.92,NNW,336,0.0,0.0,96,0.00,,,0.00,Wunderground v.1.15,2013-09-27 11:50:00,
2013-09-27 08:00:00,69.3,68.1,29.92,North,360,0.0,0.0,96,0.00,,,0.00,Wunderground v.1.15,2013-09-27 12:00:00,
2013-09-27 08:05:00,69.4,68.2,29.92,NNE,13,0.0,1.0,96,0.00,,,0.00,Wunderground v.1.15,2013-09-27 12:05:00,
2013-09-27 08:15:00,69.5,68.3,29.93,NNW,342,0.0,0.0,96,0.00,,,0.00,Wunderground v.1.15,2013-09-27 12:15:00,
2013-09-27 08:25:00,69.6,68.1,29.93,NNW,346,0.0,0.0,95,0.00,,,0.00,Wunderground v.1.15,2013-09-27 12:25:00,
2013-09-27 08:30:00,69.6,68.1,29.93,NNW,346,0.0,0.0,95,0.00,,,0.00,Wunderground v.1.15,2013-09-27 12:30:00,
2013-09-27 08:40:00,69.8,68.3,29.93,North,360,0.0,0.0,95,0.00,,,0.00,Wunderground v.1.15,2013-09-27 12:40:00,
2013-09-27 08:45:00,69.9,68.1,29.93,North,355,0.0,0.0,94,0.00,,,0.00,Wunderground v.1.15,2013-09-27 12:45:00,
2013-09-27 08:50:00,70.2,68.4,29.93,ENE,63,0.0,0.0,94,0.00,,,0.00,Wunderground v.1.15,2013-09-27 12:50:00,
2013-09-27 09:00:00,70.8,69.0,29.94,ENE,59,0.0,0.0,94,0.00,,,0.00,Wunderground v.1.15,2013-09-27 13:00:00,
2013-09-27 09:05:00,71.1,69.0,29.94,ENE,59,0.0,0.0,93,0.00,,,0.00,Wunderground v.1.15,2013-09-27 13:05:00,
2013-09-27 09:15:00,71.6,69.5,29.94,North,350,0.0,0.0,93,0.00,,,0.00,Wunderground v.1.15,2013-09-27 13:15:00,
2013-09-27 09:20:00,72.0,69.5,29.94,NNW,327,0.0,0.0,92,0.00,,,0.00,Wunderground v.1.15,2013-09-27 13:20:00,
2013-09-27 09:25:00,72.6,70.1,29.94,North,355,0.0,0.0,92,0.00,,,0.00,Wunderground v.1.15,2013-09-27 13:25:00,
2013-09-27 09:35:00,74.2,70.7,29.94,NW,319,0.0,1.0,89,0.00,,,0.00,Wunderground v.1.15,2013-09-27 13:35:00,
2013-09-27 09:45:00,75.2,70.7,29.94,NNW,330,1.0,2.0,86,0.00,,,0.00,Wunderground v.1.15,2013-09-27 13:45:00,
2013-09-27 09:50:00,75.4,70.9,29.94,NNW,348,1.0,1.0,86,0.00,,,0.00,Wunderground v.1.15,2013-09-27 13:50:00,
2013-09-27 09:55:00,75.5,71.4,29.94,NE,48,1.0,1.0,87,0.00,,,0.00,Wunderground v.1.15,2013-09-27 13:55:00,
2013-09-27 10:00:00,76.1,71.3,29.94,NW,317,1.0,2.0,85,0.00,,,0.00,Wunderground v.1.15,2013-09-27 14:00:00,
2013-09-27 10:10:00,76.6,71.0,29.94,NW,326,1.0,1.0,83,0.00,,,0.00,Wunderground v.1.15,2013-09-27 14:10:00,
2013-09-27 10:15:00,76.3,71.1,29.94,NNE,13,1.0,1.0,84,0.00,,,0.00,Wunderground v.1.15,2013-09-27 14:15:00,
2013-09-27 10:25:00,77.0,71.8,29.94,NNE,30,1.0,1.0,84,0.00,,,0.00,Wunderground v.1.15,2013-09-27 14:25:00,
2013-09-27 10:30:00,77.5,71.6,29.94,North,350,1.0,1.0,82,0.00,,,0.00,Wunderground v.1.15,2013-09-27 14:30:00,
2013-09-27 10:35:00,78.0,71.7,29.94,East,88,2.0,2.0,81,0.00,,,0.00,Wunderground v.1.15,2013-09-27 14:35:00,
2013-09-27 10:45:00,78.7,72.7,29.94,NNW,342,1.0,3.0,82,0.00,,,0.00,Wunderground v.1.15,2013-09-27 14:45:00,
2013-09-27 10:55:00,78.6,72.3,29.94,East,81,1.0,2.0,81,0.00,,,0.00,Wunderground v.1.15,2013-09-27 14:55:00,
2013-09-27 11:00:00,78.7,71.6,29.94,NW,320,1.0,2.0,79,0.00,,,0.00,Wunderground v.1.15,2013-09-27 15:00:00,
2013-09-27 11:10:00,78.8,72.1,29.94,NNW,327,2.0,2.0,80,0.00,,,0.00,Wunderground v.1.15,2013-09-27 15:10:00,
2013-09-27 11:15:00,79.3,71.8,29.94,North,360,2.0,2.0,78,0.00,,,0.00,Wunderground v.1.15,2013-09-27 15:15:00,
2013-09-27 11:25:00,79.7,72.2,29.95,NNW,333,2.0,2.0,78,0.00,,,0.00,Wunderground v.1.15,2013-09-27 15:25:00,
2013-09-27 11:35:00,79.3,71.8,29.94,NNE,15,2.0,2.0,78,0.00,,,0.00,Wunderground v.1.15,2013-09-27 15:35:00,
2013-09-27 11:45:00,79.3,71.8,29.94,North,9,2.0,2.0,78,0.00,,,0.00,Wunderground v.1.15,2013-09-27 15:45:00,
2013-09-27 11:50:00,79.7,72.2,29.94,NNW,342,2.0,2.0,78,0.00,,,0.00,Wunderground v.1.15,2013-09-27 15:50:00,
2013-09-27 12:00:00,80.0,71.8,29.94,NNW,333,2.0,2.0,76,0.00,,,0.00,Wunderground v.1.15,2013-09-27 16:00:00,
2013-09-27 12:10:00,80.2,72.3,29.94,NNW,348,2.0,2.0,77,0.00,,,0.00,Wunderground v.1.15,2013-09-27 16:10:00,
2013-09-27 12:15:00,80.3,72.4,29.94,North,5,2.0,2.0,77,0.00,,,0.00,Wunderground v.1.15,2013-09-27 16:15:00,
2013-09-27 12:25:00,79.9,72.0,29.93,NNW,328,2.0,2.0,77,0.00,,,0.00,Wunderground v.1.15,2013-09-27 16:25:00,
2013-09-27 12:30:00,80.0,72.1,29.94,North,355,2.0,2.0,77,0.00,,,0.00,Wunderground v.1.15,2013-09-27 16:30:00,
2013-09-27 12:35:00,80.0,72.1,29.94,NNW,346,2.0,3.0,77,0.00,,,0.00,Wunderground v.1.15,2013-09-27 16:35:00,
2013-09-27 12:45:00,80.2,71.9,29.93,North,5,2.0,3.0,76,0.00,,,0.00,Wunderground v.1.15,2013-09-27 16:45:00,
2013-09-27 12:55:00,80.8,71.3,29.93,NW,326,2.0,3.0,73,0.00,,,0.00,Wunderground v.1.15,2013-09-27 16:55:00,
2013-09-27 13:00:00,81.0,71.1,29.93,North,5,2.0,2.0,72,0.00,,,0.00,Wunderground v.1.15,2013-09-27 17:00:00,
2013-09-27 13:05:00,81.0,71.5,29.93,NNW,347,2.0,2.0,73,0.00,,,0.00,Wunderground v.1.15,2013-09-27 17:05:00,
2013-09-27 13:15:00,80.8,70.9,29.92,NW,319,1.0,1.0,72,0.00,,,0.00,Wunderground v.1.15,2013-09-27 17:15:00,
2013-09-27 13:25:00,80.8,69.7,29.92,NNW,342,2.0,2.0,69,0.00,,,0.00,Wunderground v.1.15,2013-09-27 17:25:00,
2013-09-27 13:30:00,80.9,70.2,29.92,North,355,3.0,3.0,70,0.00,,,0.00,Wunderground v.1.15,2013-09-27 17:30:00,
2013-09-27 13:35:00,81.1,70.8,29.92,NW,320,2.0,3.0,71,0.00,,,0.00,Wunderground v.1.15,2013-09-27 17:35:00,
2013-09-27 13:45:00,81.1,71.6,29.92,North,5,2.0,2.0,73,0.00,,,0.00,Wunderground v.1.15,2013-09-27 17:45:00,
2013-09-27 13:55:00,81.4,70.7,29.91,North,9,1.0,3.0,70,0.00,,,0.00,Wunderground v.1.15,2013-09-27 17:55:00,
2013-09-27 14:00:00,81.4,71.5,29.91,North,5,2.0,2.0,72,0.00,,,0.00,Wunderground v.1.15,2013-09-27 18:00:00,
2013-09-27 14:10:00,81.4,71.5,29.91,NNW,342,1.0,3.0,72,0.00,,,0.00,Wunderground v.1.15,2013-09-27 18:10:00,
2013-09-27 14:20:00,81.6,71.7,29.91,North,5,1.0,1.0,72,0.00,,,0.00,Wunderground v.1.15,2013-09-27 18:20:00,
2013-09-27 14:30:00,81.6,71.3,29.90,NNW,329,1.0,1.0,71,0.00,,,0.00,Wunderground v.1.15,2013-09-27 18:30:00,
2013-09-27 14:40:00,81.6,71.7,29.90,NNW,341,1.0,4.0,72,0.00,,,0.00,Wunderground v.1.15,2013-09-27 18:40:00,
2013-09-27 14:45:00,81.7,72.2,29.90,North,360,1.0,4.0,73,0.00,,,0.00,Wunderground v.1.15,2013-09-27 18:45:00,
2013-09-27 14:55:00,81.8,71.5,29.89,North,355,2.0,2.0,71,0.00,,,0.00,Wunderground v.1.15,2013-09-27 18:55:00,
2013-09-27 15:00:00,81.8,71.1,29.89,NNW,342,2.0,2.0,70,0.00,,,0.00,Wunderground v.1.15,2013-09-27 19:00:00,
2013-09-27 15:10:00,82.1,71.3,29.89,NW,319,2.0,2.0,70,0.00,,,0.00,Wunderground v.1.15,2013-09-27 19:10:00,
2013-09-27 15:15:00,82.1,71.3,29.89,NNW,348,2.0,3.0,70,0.00,,,0.00,Wunderground v.1.15,2013-09-27 19:15:00,
2013-09-27 15:25:00,82.5,71.7,29.89,NNE,24,2.0,2.0,70,0.00,,,0.00,Wunderground v.1.15,2013-09-27 19:25:00,
2013-09-27 15:30:00,82.6,71.4,29.89,NNW,342,2.0,2.0,69,0.00,,,0.00,Wunderground v.1.15,2013-09-27 19:30:00,
2013-09-27 15:40:00,83.0,71.8,29.88,East,90,2.0,2.0,69,0.00,,,0.00,Wunderground v.1.15,2013-09-27 19:40:00,
2013-09-27 15:45:00,83.4,72.2,29.88,North,355,2.0,2.0,69,0.00,,,0.00,Wunderground v.1.15,2013-09-27 19:45:00,
2013-09-27 15:55:00,83.3,72.1,29.88,NNW,340,2.0,3.0,69,0.00,,,0.00,Wunderground v.1.15,2013-09-27 19:55:00,
2013-09-27 16:00:00,83.3,72.9,29.88,NNW,337,2.0,2.0,71,0.00,,,0.00,Wunderground v.1.15,2013-09-27 20:00:00,
2013-09-27 16:05:00,83.6,73.2,29.88,NNE,19,2.0,2.0,71,0.00,,,0.00,Wunderground v.1.15,2013-09-27 20:05:00,
2013-09-27 16:15:00,83.6,72.3,29.88,North,355,1.0,3.0,69,0.00,,,0.00,Wunderground v.1.15,2013-09-27 20:15:00,
2013-09-27 16:20:00,83.7,72.0,29.88,North,10,1.0,2.0,68,0.00,,,0.00,Wunderground v.1.15,2013-09-27 20:20:00,
2013-09-27 16:30:00,84.0,72.3,29.88,North,355,2.0,2.0,68,0.00,,,0.00,Wunderground v.1.15,2013-09-27 20:30:00,
2013-09-27 16:40:00,84.3,72.6,29.88,NNE,32,1.0,1.0,68,0.00,,,0.00,Wunderground v.1.15,2013-09-27 20:40:00,
2013-09-27 16:45:00,84.6,73.3,29.88,NNW,336,1.0,1.0,69,0.00,,,0.00,Wunderground v.1.15,2013-09-27 20:45:00,
2013-09-27 16:55:00,84.6,72.4,29.88,North,11,2.0,2.0,67,0.00,,,0.00,Wunderground v.1.15,2013-09-27 20:55:00,
2013-09-27 17:05:00,83.7,71.6,29.88,NNW,344,2.0,2.0,67,0.00,,,0.00,Wunderground v.1.15,2013-09-27 21:05:00,
2013-09-27 17:10:00,82.9,72.1,29.88,ENE,68,2.0,4.0,70,0.00,,,0.00,Wunderground v.1.15,2013-09-27 21:10:00,
2013-09-27 17:20:00,81.5,72.0,29.89,North,5,3.0,5.0,73,0.00,,,0.00,Wunderground v.1.15,2013-09-27 21:20:00,
2013-09-27 17:30:00,80.9,72.2,29.89,North,355,2.0,4.0,75,0.00,,,0.00,Wunderground v.1.15,2013-09-27 21:30:00,
2013-09-27 17:35:00,80.6,72.3,29.89,NNW,348,3.0,4.0,76,0.00,,,0.00,Wunderground v.1.15,2013-09-27 21:35:00,
2013-09-27 17:45:00,79.8,71.9,29.90,North,355,3.0,3.0,77,0.00,,,0.00,Wunderground v.1.15,2013-09-27 21:45:00,
2013-09-27 17:50:00,79.3,71.8,29.90,North,360,3.0,3.0,78,0.00,,,0.00,Wunderground v.1.15,2013-09-27 21:50:00,
2013-09-27 18:00:00,78.8,71.4,29.91,NNW,333,3.0,3.0,78,0.00,,,0.00,Wunderground v.1.15,2013-09-27 22:00:00,
2013-09-27 18:10:00,78.9,71.5,29.91,NNW,344,4.0,4.0,78,0.00,,,0.00,Wunderground v.1.15,2013-09-27 22:10:00,
2013-09-27 18:15:00,79.0,71.6,29.91,North,5,3.0,4.0,78,0.00,,,0.00,Wunderground v.1.15,2013-09-27 22:15:00,
2013-09-27 18:20:00,78.9,71.5,29.91,North,350,3.0,4.0,78,0.00,,,0.00,Wunderground v.1.15,2013-09-27 22:20:00,
2013-09-27 18:30:00,78.6,71.2,29.91,NW,311,3.0,3.0,78,0.00,,,0.00,Wunderground v.1.15,2013-09-27 22:30:00,
2013-09-27 18:35:00,78.2,71.2,29.92,NE,54,3.0,3.0,79,0.00,,,0.00,Wunderground v.1.15,2013-09-27 22:35:00,
2013-09-27 18:45:00,77.8,70.8,29.92,North,355,3.0,4.0,79,0.00,,,0.00,Wunderground v.1.15,2013-09-27 22:45:00,
2013-09-27 18:55:00,77.5,70.8,29.92,NNW,336,3.0,3.0,80,0.00,,,0.00,Wunderground v.1.15,2013-09-27 22:55:00,
2013-09-27 19:00:00,77.4,71.1,29.92,North,11,3.0,3.0,81,0.00,,,0.00,Wunderground v.1.15,2013-09-27 23:00:00,
2013-09-27 19:05:00,77.3,71.0,29.92,North,355,2.0,3.0,81,0.00,,,0.00,Wunderground v.1.15,2013-09-27 23:05:00,
2013-09-27 19:10:00,77.0,71.1,29.93,North,355,2.0,2.0,82,0.00,,,0.00,Wunderground v.1.15,2013-09-27 23:10:00,
2013-09-27 19:15:00,76.8,70.9,29.93,North,5,2.0,2.0,82,0.00,,,0.00,Wunderground v.1.15,2013-09-27 23:15:00,
2013-09-27 19:25:00,76.5,70.9,29.93,East,90,2.0,2.0,83,0.00,,,0.00,Wunderground v.1.15,2013-09-27 23:25:00,
2013-09-27 19:35:00,76.2,71.0,29.93,NNE,32,2.0,3.0,84,0.00,,,0.00,Wunderground v.1.15,2013-09-27 23:35:00,
2013-09-27 19:40:00,76.1,70.6,29.93,NW,319,2.0,2.0,83,0.00,,,0.00,Wunderground v.1.15,2013-09-27 23:40:00,
2013-09-27 19:45:00,76.0,70.8,29.94,NNW,338,2.0,2.0,84,0.00,,,0.00,Wunderground v.1.15,2013-09-27 23:45:00,
2013-09-27 19:55:00,75.7,70.5,29.94,NNW,336,2.0,3.0,84,0.00,,,0.00,Wunderground v.1.15,2013-09-27 23:55:00,
2013-09-27 20:05:00,75.5,70.7,29.94,North,5,1.0,2.0,85,0.00,,,0.00,Wunderground v.1.15,2013-09-28 00:05:00,
2013-09-27 20:15:00,75.2,70.7,29.94,North,5,2.0,2.0,86,0.00,,,0.00,Wunderground v.1.15,2013-09-28 00:15:00,
2013-09-27 20:20:00,75.1,70.6,29.94,NNW,346,2.0,2.0,86,0.00,,,0.00,Wunderground v.1.15,2013-09-28 00:20:00,
2013-09-27 20:30:00,74.9,70.8,29.94,ENE,58,1.0,1.0,87,0.00,,,0.00,Wunderground v.1.15,2013-09-28 00:30:00,
2013-09-27 20:35:00,74.8,71.0,29.94,North,5,2.0,2.0,88,0.00,,,0.00,Wunderground v.1.15,2013-09-28 00:35:00,
2013-09-27 20:45:00,74.6,70.8,29.95,NE,52,1.0,2.0,88,0.00,,,0.00,Wunderground v.1.15,2013-09-28 00:45:00,
2013-09-27 20:50:00,74.6,70.8,29.95,North,5,2.0,2.0,88,0.00,,,0.00,Wunderground v.1.15,2013-09-28 00:50:00,
2013-09-27 21:00:00,74.6,70.8,29.95,NNW,348,2.0,2.0,88,0.00,,,0.00,Wunderground v.1.15,2013-09-28 01:00:00,
2013-09-27 21:10:00,74.6,70.8,29.95,North,355,2.0,2.0,88,0.00,,,0.00,Wunderground v.1.15,2013-09-28 01:10:00,
2013-09-27 21:15:00,74.6,70.8,29.95,North,5,2.0,2.0,88,0.00,,,0.00,Wunderground v.1.15,2013-09-28 01:15:00,
2013-09-27 21:25:00,74.6,70.8,29.95,North,355,3.0,4.0,88,0.00,,,0.00,Wunderground v.1.15,2013-09-28 01:25:00,
2013-09-27 21:30:00,74.6,70.8,29.96,NW,323,3.0,3.0,88,0.00,,,0.00,Wunderground v.1.15,2013-09-28 01:30:00,
2013-09-27 21:40:00,74.6,70.8,29.96,North,360,3.0,3.0,88,0.00,,,0.00,Wunderground v.1.15,2013-09-28 01:40:00,
2013-09-27 21:50:00,74.4,70.6,29.96,North,5,2.0,2.0,88,0.00,,,0.00,Wunderground v.1.15,2013-09-28 01:50:00,
2013-09-27 22:00:00,74.5,70.7,29.96,North,355,2.0,2.0,88,0.00,,,0.00,Wunderground v.1.15,2013-09-28 02:00:00,
2013-09-27 22:15:00,74.5,70.7,29.97,NNW,341,2.0,3.0,88,0.00,,,0.00,Wunderground v.1.15,2013-09-28 02:15:00,
2013-09-27 22:25:00,74.5,70.7,29.97,North,355,2.0,5.0,88,0.00,,,0.00,Wunderground v.1.15,2013-09-28 02:25:00,
2013-09-27 22:30:00,74.5,70.7,29.97,North,5,3.0,3.0,88,0.00,,,0.00,Wunderground v.1.15,2013-09-28 02:30:00,
2013-09-27 22:40:00,74.3,70.5,29.98,North,355,2.0,3.0,88,0.00,,,0.00,Wunderground v.1.15,2013-09-28 02:40:00,
2013-09-27 22:45:00,74.2,70.4,29.98,North,5,2.0,3.0,88,0.00,,,0.00,Wunderground v.1.15,2013-09-28 02:45:00,
2013-09-27 22:55:00,73.8,70.4,29.98,North,360,2.0,3.0,89,0.00,,,0.00,Wunderground v.1.15,2013-09-28 02:55:00,
2013-09-27 23:00:00,73.6,70.2,29.98,North,5,2.0,3.0,89,0.00,,,0.00,Wunderground v.1.15,2013-09-28 03:00:00,
2013-09-27 23:10:00,73.3,70.2,29.97,North,5,2.0,3.0,90,0.00,,,0.00,Wunderground v.1.15,2013-09-28 03:10:00,
2013-09-27 23:20:00,73.0,69.9,29.97,North,360,2.0,2.0,90,0.00,,,0.00,Wunderground v.1.15,2013-09-28 03:20:00,
2013-09-27 23:30:00,72.8,70.0,29.98,NNE,19,1.0,1.0,91,0.00,,,0.00,Wunderground v.1.15,2013-09-28 03:30:00,
2013-09-27 23:35:00,72.6,69.8,29.98,North,11,1.0,1.0,91,0.00,,,0.00,Wunderground v.1.15,2013-09-28 03:35:00,
2013-09-27 23:45:00,72.5,70.0,29.97,North,360,1.0,2.0,92,0.00,,,0.00,Wunderground v.1.15,2013-09-28 03:45:00,
2013-09-27 23:55:00,72.3,69.8,29.97,NE,36,1.0,1.0,92,0.00,,,0.00,Wunderground v.1.15,2013-09-28 03:55:00,